WE3C Weather Reports


Display with metric or nautical units.
time (UTC)temp
F
wind
direction
speed
MPH
gust
MPH
rain 1hr
in
rain 24hr
in
rain mn
in
humidity
%
barometer
mb
20260509011514 55 360 0.0 0.0 0.00 0.00 0.00 63 1017.5
20260509010014 56 298 0.0 0.0 0.00 0.00 0.00 62 1017.4
20260509004522 57 300 0.0 0.0 0.00 0.00 0.00 61 1017.2
20260509003013 57 305 0.0 0.0 0.00 0.00 0.00 61 1017.0
20260509001513 57 310 0.0 0.0 0.00 0.00 0.00 60 1016.8
20260509000011 58 263 0.0 0.0 0.00 0.00 0.00 59 1016.6
20260508234514 58 296 0.0 0.0 0.00 0.00 0.00 60 1016.6
20260508233011 59 247 0.0 0.0 0.00 0.00 0.00 59 1016.7
20260508231510 59 251 0.0 0.0 0.00 0.00 0.00 57 1016.6
20260508230009 60 248 0.0 0.0 0.00 0.00 0.00 52 1016.3
20260508224509 60 250 0.0 0.0 0.00 0.00 0.00 49 1016.3
20260508223018 60 360 0.0 0.0 0.00 0.00 0.00 47 1016.4
20260508221507 61 246 0.0 0.0 0.00 0.00 0.00 47 1016.4
20260508220009 60 231 0.0 0.0 0.00 0.00 0.00 48 1016.4
20260508214507 61 257 0.0 0.0 0.00 0.00 0.00 48 1016.5
20260508213018 61 247 0.0 0.0 0.00 0.00 0.00 45 1016.4
20260508211505 62 221 0.0 0.0 0.00 0.00 0.00 44 1016.4
20260508210008 62 244 0.0 0.0 0.00 0.00 0.00 44 1016.3
20260508204505 62 360 0.0 0.0 0.00 0.00 0.00 44 1016.4
20260508203109 63 360 0.0 0.0 0.00 0.00 0.00 43 1016.5
20260508201503 63 287 0.0 0.0 0.00 0.00 0.00 43 1016.5
20260508200008 63 292 0.0 0.0 0.00 0.00 0.00 44 1016.9
20260508194501 62 251 0.0 0.0 0.00 0.00 0.00 47 1017.0
20260508193105 61 360 0.0 0.0 0.00 0.00 0.00 44 1017.1
20260508191600 63 229 0.0 0.0 0.00 0.00 0.00 42 1017.2
20260508190057 62 360 0.0 0.0 0.00 0.00 0.00 43 1017.4
20260508184557 62 259 0.0 0.0 0.00 0.00 0.00 44 1017.2
20260508183056 60 360 0.0 0.0 0.00 0.00 0.00 44 1017.2
20260508181558 61 246 0.0 0.0 0.00 0.00 0.00 43 1017.1
20260508180054 61 232 0.0 0.0 0.00 0.00 0.00 42 1017.1
20260508174559 61 360 0.0 0.0 0.00 0.00 0.00 44 1017.2
20260508173053 62 248 0.0 0.0 0.00 0.00 0.00 46 1017.4
20260508171550 61 205 0.0 0.0 0.00 0.00 0.00 44 1017.4
20260508170048 59 360 0.0 0.0 0.00 0.00 0.00 45 1017.7
20260508164552 59 257 0.0 0.0 0.00 0.00 0.00 46 1017.8
20260508163044 60 232 0.0 0.0 0.00 0.00 0.00 49 1017.9
20260508161541 59 225 0.0 0.0 0.00 0.00 0.00 47 1018.0
20260508160039 58 360 0.0 0.0 0.00 0.00 0.00 45 1018.1
20260508154537 57 360 0.0 0.0 0.00 0.00 0.00 47 1018.4
20260508153038 56 244 0.0 0.0 0.00 0.00 0.00 48 1018.6
20260508151527 55 211 0.0 0.0 0.00 0.00 0.00 52 1019.0
20260508150045 54 249 0.0 0.0 0.00 0.00 0.00 54 1019.0
20260508144520 53 250 0.0 0.0 0.00 0.00 0.00 57 1019.1
20260508143020 51 240 0.0 0.0 0.00 0.00 0.00 57 1019.2
20260508141524 51 217 0.0 0.0 0.00 0.00 0.00 58 1019.1
20260508140025 51 223 0.0 0.0 0.00 0.00 0.00 59 1019.1
20260508134517 50 218 0.0 0.0 0.00 0.00 0.00 62 1019.3
20260508133016 50 221 0.0 0.0 0.00 0.00 0.00 65 1019.4
20260508131515 50 231 0.0 0.0 0.00 0.00 0.00 66 1019.5
20260508130013 49 248 0.0 0.0 0.00 0.00 0.00 65 1019.3
20260508124513 49 249 0.0 0.0 0.00 0.00 0.00 66 1019.3
20260508123013 48 360 0.0 0.0 0.00 0.00 0.00 70 1019.2
20260508121512 47 265 0.0 0.0 0.00 0.00 0.00 74 1019.2
20260508120012 46 360 0.0 0.0 0.00 0.00 0.00 77 1019.3
20260508114511 45 256 0.0 0.0 0.00 0.00 0.00 79 1019.3
20260508113011 44 248 0.0 0.0 0.00 0.00 0.00 81 1019.1
20260508111509 42 265 0.0 0.0 0.00 0.00 0.00 82 1018.9
20260508110007 41 261 0.0 0.0 0.00 0.00 0.00 82 1018.8
20260508104505 41 360 0.0 0.0 0.00 0.00 0.00 81 1018.5
20260508103005 40 275 0.0 0.0 0.00 0.00 0.00 81 1018.5
20260508101504 40 282 0.0 0.0 0.00 0.00 0.00 81 1018.5
20260508100002 40 282 0.0 0.0 0.00 0.00 0.00 81 1018.4
20260508094500 40 248 0.0 0.0 0.00 0.00 0.00 82 1018.0
20260508093058 41 360 0.0 0.0 0.00 0.00 0.00 82 1018.2
20260508091608 41 360 0.0 0.0 0.00 0.00 0.00 81 1018.1
20260508090054 42 360 0.0 0.0 0.00 0.00 0.00 81 1018.2
20260508084557 43 360 0.0 0.0 0.00 0.00 0.00 81 1018.1
20260508083054 43 360 0.0 0.0 0.00 0.00 0.00 81 1017.9
20260508081547 44 360 0.0 0.0 0.00 0.00 0.00 80 1017.8
20260508080105 44 300 0.0 0.0 0.00 0.00 0.00 80 1017.7
20260508074542 44 302 0.0 0.0 0.00 0.00 0.00 80 1017.5
20260508073048 45 315 0.0 0.0 0.00 0.00 0.00 79 1017.3
20260508071534 45 321 0.0 0.0 0.00 0.00 0.00 79 1017.3
20260508070033 46 360 0.0 0.0 0.00 0.00 0.00 77 1017.3
20260508064540 46 346 0.0 0.0 0.00 0.00 0.00 77 1017.1
20260508063028 47 360 0.0 0.0 0.00 0.00 0.00 76 1016.9
20260508061526 47 360 0.0 0.0 0.00 0.00 0.00 75 1017.0
20260508060020 48 360 0.0 0.0 0.00 0.00 0.00 73 1017.0
20260508054532 49 328 0.0 0.0 0.00 0.00 0.00 71 1016.7
20260508053014 49 329 0.0 0.0 0.00 0.00 0.00 70 1016.5
20260508051513 50 327 0.0 0.0 0.00 0.00 0.00 68 1016.3
20260508050010 51 308 0.0 0.0 0.00 0.00 0.00 65 1015.8
20260508044508 52 338 0.0 0.0 0.00 0.00 0.00 63 1015.4
20260508043005 52 347 0.0 0.0 0.00 0.00 0.00 66 1015.3
20260508041504 52 5 0.0 0.0 0.00 0.00 0.00 68 1015.4
20260508040112 52 360 0.0 0.0 0.00 0.00 0.00 66 1015.0
20260508034557 53 360 0.0 0.0 0.00 0.00 0.00 65 1014.9
20260508033056 53 267 0.0 0.0 0.00 0.00 0.00 64 1014.9
20260508033021 53 360 0.0 0.0 0.00 0.00 0.00 63 1014.9
20260508031556 53 229 0.0 0.0 0.00 0.00 0.00 65 1014.8
20260508030057 53 360 0.0 0.0 0.00 0.00 0.00 63 1014.7
20260508024554 53 225 0.0 0.0 0.00 0.00 0.00 57 1014.7
20260508023053 54 207 0.0 0.0 0.00 0.00 0.00 58 1014.7
20260508021553 54 210 0.0 0.0 0.00 0.00 0.00 57 1014.8
20260508020056 54 248 0.0 0.0 0.00 0.00 0.00 53 1014.7
20260508014552 54 320 0.0 0.0 0.00 0.00 0.00 51 1014.5
20260508013051 54 319 0.0 0.0 0.00 0.00 0.00 57 1014.2